YUBILEINY (RS-30)

Last updated on Wed May 14 2025 00:03:03 GMT+0000 (Coordinated Universal Time)

1 32953U 08025A 25133.60247989 .00000030 00000+0 14298-3 0 9995 2 32953 82.5032 243.9513 0020557 105.2418 255.0937 12.43163938770040
UTC large
Height (km)
Speed (km/s)
/
Latitude / Longitude
Inclination (degrees)
Orbital Period (minutes)
Azimuth
Elevation
Range (km)
Doppler Factor

Next 0 passes for location: London (51.5072 / 0.1276)

Sorry there are no passes over London.